sat.trackr.live / text

‹ back to catalog

HULIANWANG DIGUI-115

NORAD 66954 · 2025-287B

PAYLOAD ACTIVE UNKNOWN

§ Identity

Operator
Country
PRC
Launch date
2025-12-08
Launch site
TAISC
Launch vehicle
Mass (kg)
RCS (m²)

External: N2YO · Heavens-Above · Gunter

§ Orbital elements

Epoch: 2026-05-25T02:11:58.979040Z

Period
108.73 min
Inclination
86.4931°
Eccentricity
0.0001503
Mean motion
13.24427906 rev/d
Perigee alt
1,166.7 km
Apogee alt
1,169.0 km
Semi-major
7,546.0 km
B*
4.3696e-5
RAAN
290.1946°
Arg perigee
113.4012°
Mean anomaly
246.7280°
Rev number
2,228

§ Raw data

HULIANWANG DIGUI-1151 66954U 25287B   26145.09165485  .00000033  00000+0  43696-4 0  99972 66954  86.4931 290.1946 0001503 113.4012 246.7280 13.24427906 22286

JSON: /api/v1/satellites/66954 · /tle

For live sub-satellite position, see the globe view (requires WebGL).

§ Visibility from observer

Set your observer location to see the next 7 days of passes ≥ 10°. The values pass through the URL so the page stays shareable.

No JS? Fill the form by hand. The geolocation button needs JavaScript.